TimeCST,TemperatureF,Dew PointF,Humidity,Sea Level PressureIn,VisibilityMPH,Wind Direction,Wind SpeedMPH,Gust SpeedMPH,PrecipitationIn,Events,Conditions,WindDirDegrees,DateUTC
12:53 AM,-20.0,-26.0,74,30.48,10.0,South,6.9,-,N/A,,Clear,190,2013-12-08 06:53:00
1:53 AM,-22.0,-27.0,77,30.46,10.0,South,8.1,-,N/A,,Clear,180,2013-12-08 07:53:00
2:53 AM,-18.9,-26.0,70,30.43,10.0,SSE,3.5,-,N/A,,Partly Cloudy,150,2013-12-08 08:53:00
3:53 AM,-20.9,-27.0,73,30.42,10.0,SSE,4.6,-,N/A,,Scattered Clouds,160,2013-12-08 09:53:00
4:53 AM,-18.9,-25.1,74,30.39,10.0,South,9.2,-,N/A,,Overcast,180,2013-12-08 10:53:00
5:53 AM,-14.1,-20.9,71,30.37,10.0,South,11.5,-,N/A,,Mostly Cloudy,190,2013-12-08 11:53:00
6:53 AM,-13.0,-20.0,71,30.35,10.0,South,8.1,-,N/A,,Mostly Cloudy,190,2013-12-08 12:53:00
7:53 AM,-11.0,-18.0,71,30.32,10.0,South,8.1,-,N/A,,Mostly Cloudy,180,2013-12-08 13:53:00
8:53 AM,-9.9,-16.1,74,30.30,10.0,South,10.4,-,N/A,,Overcast,180,2013-12-08 14:53:00
9:53 AM,-9.0,-15.0,75,30.28,10.0,South,9.2,-,N/A,,Overcast,170,2013-12-08 15:53:00
10:53 AM,-7.1,-13.0,75,30.27,4.0,South,10.4,-,N/A,,Haze,180,2013-12-08 16:53:00
11:03 AM,-7.6,-11.2,84,30.17,2.5,South,10.4,-,N/A,,Haze,180,2013-12-08 17:03:00
11:15 AM,-5.8,-11.2,77,30.17,1.5,South,9.2,-,0.00,Snow,Light Snow,180,2013-12-08 17:15:00
11:29 AM,-5.8,-11.2,77,30.15,1.2,South,10.4,-,0.01,Snow,Light Snow,180,2013-12-08 17:29:00
11:53 AM,-5.1,-11.0,76,30.23,1.2,South,10.4,-,0.01,Snow,Light Snow,180,2013-12-08 17:53:00
12:32 PM,-4.0,-9.4,78,30.11,1.2,South,9.2,-,N/A,,Haze,180,2013-12-08 18:32:00
12:42 PM,-4.0,-9.4,78,30.10,3.0,South,8.1,-,N/A,,Haze,170,2013-12-08 18:42:00
12:53 PM,-4.0,-9.0,79,30.19,6.0,South,9.2,-,0.01,,Haze,180,2013-12-08 18:53:00
1:53 PM,-2.0,-8.0,76,30.17,3.0,SSE,10.4,-,N/A,,Haze,160,2013-12-08 19:53:00
2:53 PM,-0.9,-7.1,75,30.14,2.0,South,9.2,-,0.00,Snow,Light Snow,190,2013-12-08 20:53:00
3:14 PM,-0.4,-5.8,78,30.04,1.8,South,8.1,-,0.01,Snow,Light Snow,180,2013-12-08 21:14:00
3:53 PM,-0.0,-6.0,76,30.13,6.0,SSW,8.1,-,0.01,,Haze,200,2013-12-08 21:53:00
4:25 PM,-0.4,-5.8,78,30.03,2.0,South,8.1,-,0.00,Snow,Light Snow,190,2013-12-08 22:25:00
4:41 PM,-0.4,-5.8,78,30.03,1.8,South,8.1,-,0.00,Snow,Light Snow,190,2013-12-08 22:41:00
4:53 PM,-0.0,-5.1,79,30.12,1.8,South,6.9,-,0.01,Snow,Light Snow,180,2013-12-08 22:53:00
5:11 PM,-0.4,-5.8,78,30.01,2.5,South,6.9,-,0.00,Snow,Light Snow,170,2013-12-08 23:11:00
5:39 PM,-0.4,-5.8,78,30.02,2.0,SSW,6.9,-,0.00,,Haze,200,2013-12-08 23:39:00
5:53 PM,-0.0,-5.1,79,30.10,2.0,South,6.9,-,0.00,Snow,Light Snow,190,2013-12-08 23:53:00
6:01 PM,-0.4,-5.8,78,30.01,7.0,South,4.6,-,0.00,,Overcast,190,2013-12-09 00:01:00
6:53 PM,-0.9,-6.0,79,30.09,6.0,SSW,6.9,-,0.01,Snow,Light Snow,200,2013-12-09 00:53:00
7:41 PM,-2.2,-5.8,85,29.99,6.0,South,6.9,-,0.00,Snow,Light Snow,190,2013-12-09 01:41:00
7:53 PM,-2.9,-8.0,79,30.08,10.0,South,5.8,-,0.00,,Overcast,190,2013-12-09 01:53:00
8:53 PM,-4.0,-8.0,83,30.07,7.0,South,5.8,-,0.00,Snow,Light Snow,190,2013-12-09 02:53:00
9:10 PM,-5.8,-9.4,84,29.98,10.0,SSW,5.8,-,0.00,,Overcast,200,2013-12-09 03:10:00
9:50 PM,-5.8,-9.4,84,29.97,10.0,West,8.1,-,0.00,,Scattered Clouds,260,2013-12-09 03:50:00
9:53 PM,-6.0,-11.0,79,30.06,10.0,West,8.1,-,0.00,,Scattered Clouds,260,2013-12-09 03:53:00
10:53 PM,-7.1,-13.0,75,30.05,10.0,West,10.4,-,N/A,,Partly Cloudy,280,2013-12-09 04:53:00
11:53 PM,-9.0,-15.0,75,30.04,10.0,West,9.2,-,N/A,,Clear,270,2013-12-09 05:53:00